This is the latest recevied weather packets stored in our database for station/object OK2ILA-1. If no packets are shown the sender has not sent any weather packets the latest 10 day(s).
| Time | Temp. | Humidity | Pressure | Rain* | Wind** | Luminosity | Snow |
|---|---|---|---|---|---|---|---|
| 1777760289 | 8.89° C | 100% | 1020.9 hPa | 0 mm | - | - | - |
| 1777759568 | 9.44° C | 100% | 1021 hPa | 0 mm | - | - | - |
| 1777758847 | 10° C | 100% | 1021 hPa | 0 mm | - | - | - |
| 1777758126 | 10° C | 100% | 1021 hPa | 0 mm | - | - | - |
| 1777757406 | 10.56° C | 100% | 1021.1 hPa | 0 mm | - | - | - |
| 1777756685 | 10.56° C | 100% | 1021.2 hPa | 0 mm | - | - | - |
| 1777755964 | 10.56° C | 100% | 1021.3 hPa | 0 mm | - | - | - |
| 1777755244 | 11.11° C | 100% | 1021.4 hPa | 0 mm | - | - | - |
| 1777754523 | 11.67° C | 100% | 1021.3 hPa | 0 mm | - | - | - |
| 1777753802 | 12.22° C | 100% | 1021.3 hPa | 0 mm | - | - | - |
| 1777753082 | 12.22° C | 100% | 1021.4 hPa | 0 mm | - | - | - |
| 1777752361 | 12.78° C | 100% | 1021.5 hPa | 0 mm | - | - | - |
| 1777751640 | 13.33° C | 100% | 1021.5 hPa | 0 mm | - | - | - |
| 1777750920 | 13.33° C | 100% | 1021.5 hPa | 0 mm | - | - | - |
| 1777750199 | 13.89° C | 100% | 1021.4 hPa | 0 mm | - | - | - |
| 1777749478 | 14.44° C | 100% | 1021.5 hPa | 0 mm | - | - | - |
| 1777748758 | 15° C | 100% | 1021.3 hPa | 0 mm | - | - | - |
| 1777748037 | 15.56° C | 100% | 1021.3 hPa | 0 mm | - | - | - |
| 1777747316 | 15.56° C | 100% | 1021.2 hPa | 0 mm | - | - | - |
| 1777746596 | 16.11° C | 100% | 1021.1 hPa | 0 mm | - | - | - |
| 1777745875 | 17.22° C | 100% | 1021.1 hPa | 0 mm | - | - | - |
| 1777745154 | 18.89° C | 100% | 1021 hPa | 0 mm | - | - | - |
| 1777744434 | 20° C | 100% | 1021 hPa | 0 mm | - | - | - |
| 1777743713 | 20.56° C | 100% | 1021 hPa | 0 mm | - | - | - |
| 1777742992 | 20.56° C | 100% | 1021 hPa | 0 mm | - | - | - |
* Rain latest hour (hover to see other rain measurements)
** Current wind speed in m/s (hover to see current wind gust speed)